OneWeb SL0700

operational
NORAD ID: 61606 Int'l Des: 2024-188 Owner: ONEWEBE Country: UK Constellation: oneweb
LEOCIRCULARPOLARONEWEB_TYPE

About OneWeb SL0700

Description loading...

Live Position

Loading 3D Globe...

Upcoming Passes

Altitude History

Altitude vs Time

uPlot chart will show altitude changes over time

Two-Line Element Set

1 61606U 24188N 26033.52254687 .00000683 00000-0 19211-2 0 9998
2 61606 87.8775 62.9890 0002244 112.4179 247.7186 13.10379393 65661
Epoch: Feb 2, 2026 • Age: 16 hours

Current Status

Altitude 1223.9 km
Velocity 7.24 km/s
Sub-Earth Point 0.26°N, 47.76°E
Launch Date Oct 20, 2024
Age 1.2 years
Type internet

Technical Details

Classification Payload
Mass 148.00 kg
Dry Mass 140.00 kg
Total Mass 148.00 kg
Length 1.30 m
Diameter 1.00 m
Span 5.00 m
Shape Trapezoid+2 pan
Manufacturer ONEWUS
Bus Type ARROW
Phase Status In Orbit
Owner/State ONEWEBE/UK

Large Constellations

Loading constellations...